Regional Weather Roundup
Issued by NWS

Home | Current Version | Previous Version | Text Only | Print | Product List | Glossary Off
Versions: 1 2 3 4 5 6 7 8 9 10 11 12 13 14 15 16 17 18 19 20 21 22 23 24 25 26 27 28 29 30 31 32 33 34 35 36 37 38 39 40 41 42 43 44 45 46 47 48 49 50

000
ASUS43 KLOT 261603
RWRIL

ILLINOIS REGIONAL WEATHER ROUNDUP
NATIONAL WEATHER SERVICE CHICAGO/ROMEOVILLE IL
1100 AM CDT WED APR 26 2017

NOTE: "FAIR" INDICATES FEW OR NO CLOUDS BELOW 12,000 FEET WITH NO
SIGNIFICANT WEATHER AND/OR OBSTRUCTIONS TO VISIBILITY.

* THESE STATIONS ARE NOT UNDER NWS QUALITY CONTROL. THEY ALSO MAY NOT
  REPORT WEATHER SUCH AS PRECIPITATION OR FOG.

ILZ001-002-007-009-015-016-024-261700-
NORTHWEST ILLINOIS

CITY           SKY/WX    TMP DP  RH WIND       PRES   REMARKS
MOLINE         CLOUDY    58  53  84 W18       29.47R
STERLING*      CLOUDY    65  61  87 SW14      29.44S
$$

ILZ003-004-008-010-011-017-018-261700-
NORTH CENTRAL ILLINOIS

CITY           SKY/WX    TMP DP  RH WIND       PRES   REMARKS
ROCKFORD       CLOUDY    62  59  90 SW9       29.45S
FREEPORT*      CLOUDY    60  59  97 SW10      29.44S
$$

ILZ005-006-012>014-019>023-261700-
NORTHEAST ILLINOIS

CITY           SKY/WX    TMP DP  RH WIND       PRES   REMARKS
CHICAGO-OHARE  CLOUDY    70  56  61 SW17G25   29.43R
CHICAGO-MIDWAY CLOUDY    73  57  57 SW23G30   29.44R
AURORA         CLOUDY    67  58  72 SW17G23   29.46R
WAUKEGAN       CLOUDY    68  58  70 S14G23    29.42R
DUPAGE AIRPORT CLOUDY    67  58  72 SW18G25   29.45R
WHEELING       CLOUDY    69  58  67 SW14G21   29.44R
NORTHERLY ISL    N/A     71  55  56 S14         N/A
$$

LMZ740>746-261700-
SOUTHERN LAKE MICHIGAN

STATION/POSITION SKY/WX   TEMP    WIND        PRES    VSBY  WAVE
                          AIR SEA DIR/SP/G                  HT/PER
                          (F)     (DEG/KT/KT) (MB)    (MI)  (FT/S)
SOUTHERN BUOY              49 41  130/ 14/ 16  997.1          2/ 4
HARRISON CRIB              65     170/ 17/ 18   N/A
BURNHAM HARBOR             72     200/ 12/ 21   N/A
CALUMET HARBOR             72     180/ 13/ 18  996.1S
BURNS HARBOR               73     190/ 20/ 24  997.3S
MICHIGAN CITY              72     170/ 18/ 25   N/A
MICHIGAN CITY 6N           65 49                N/A           2/ 3
ST. JOSEPH                 64 49  180/ 14/ 21  997.5F         2/ 3
$$

ILZ025>027-034>036-040-047-049-050-058-095>099-261700-
WEST-CENTRAL ILLINOIS

CITY           SKY/WX    TMP DP  RH WIND       PRES   REMARKS
QUINCY         CLOUDY    57  54  89 W10       29.53R
$$

ILZ028>032-037-038-041>044-048-051>054-059>061-261700-
CENTRAL ILLINOIS

CITY           SKY/WX    TMP DP  RH WIND       PRES   REMARKS
BLOOMINGTON    CLOUDY    66  56  70 SW16      29.53R
DECATUR        FAIR      71  57  61 SW16      29.53R
PEORIA         PTSUNNY   67  60  78 SW12      29.50R
SPRINGFIELD    PTSUNNY   70  58  65 W13       29.50F
TAYLORVILLE    NOT AVBL
$$

ILZ033-039-045-046-055>057-062-063-261700-
EAST-CENTRAL ILLINOIS

CITY           SKY/WX    TMP DP  RH WIND       PRES   REMARKS
CHAMPAIGN      FAIR      79  54  41 SW24G32   29.52R
MATTOON        FAIR      75  59  57 S15G25    29.53R
$$

ILZ079-100>102-261700-
SOUTHWEST ILLINOIS

CITY           SKY/WX    TMP DP  RH WIND       PRES   REMARKS
ALTON          CLOUDY    68  55  64 S14       29.55R
CAHOKIA*       FAIR      69  55  60 W8        29.55R
$$

ILZ064>066-069>071-074>076-080>082-084>086-088>090-092>094-261700-
SOUTH-CENTRAL ILLINOIS

CITY           SKY/WX    TMP DP  RH WIND       PRES   REMARKS
CARBONDALE     FAIR      76  64  66 SW12      29.57R
MT. VERNON     FAIR      76  62  62 SW14      29.57R
$$

ILZ067-068-072-073-078-083-087-091-261700-
SOUTHEAST ILLINOIS

CITY           SKY/WX    TMP DP  RH WIND       PRES   REMARKS
LAWRENCEVILLE  FAIR      78  59  51 S18G29    29.56S
$$

ABBREVIATIONS USED IN REMARKS
   TC - TEMPERATURE IN CELSIUS
  WCI - WIND CHILL INDEX
   HX - HEAT INDEX
  VSB - VISIBILITY
$$




USA.gov is the U.S. government's official web portal to all federal, state and local government web resources and services.